This is the latest recevied weather packets stored in our database for station/object K0PFX-8. If no packets are shown the sender has not sent any weather packets the latest 10 day(s).
| Time | Temp. | Humidity | Pressure | Rain* | Wind** | Luminosity | Snow |
|---|---|---|---|---|---|---|---|
| 1778128449 | 8.33° C | 87% | 1018.6 hPa | 0 mm | 0 m/s | - | - |
| 1778127551 | 8.33° C | 85% | 1018.8 hPa | 0 mm | 0 m/s | - | - |
| 1778126650 | 8.89° C | 85% | 1018.8 hPa | 0 mm | 0 m/s | - | - |
| 1778125752 | 8.89° C | 82% | 1018.6 hPa | 0 mm | 0 m/s | - | - |
| 1778124851 | 9.44° C | 81% | 1018.8 hPa | 0 mm | 0 m/s | - | - |
| 1778123953 | 10° C | 79% | 1018.6 hPa | 0 mm | 0 m/s | - | - |
| 1778123052 | 10.56° C | 78% | 1018.5 hPa | 0 mm | 0 m/s | - | - |
| 1778122153 | 11.11° C | 74% | 1018.5 hPa | 0 mm | 0 m/s | - | - |
| 1778121253 | 11.11° C | 63% | 1018.5 hPa | 0 mm | 0 m/s | - | - |
| 1778120354 | 11.67° C | 62% | 1018.3 hPa | 0 mm | 0 m/s | - | - |
| 1778119453 | 12.22° C | 61% | 1018.2 hPa | 0 mm | 0 m/s | - | - |
| 1778118555 | 12.22° C | 52% | 1017.8 hPa | 0 mm | 0 m/s | - | - |
| 1778117654 | 13.33° C | 50% | 1017.7 hPa | 0 mm | 0 m/s | - | - |
| 1778116761 | 13.33° C | 47% | 1017.3 hPa | 15.24 mm | 0 m/s | - | - |
| 1778116756 | 13.33° C | 47% | 1017.3 hPa | 0 mm | 0 m/s | - | - |
| 1778115855 | 13.89° C | 45% | 1017 hPa | 0 mm | 0 m/s | - | - |
| 1778114957 | 14.44° C | 44% | 1016.8 hPa | 0 mm | 0.45 m/s, 263° | - | - |
| 1778114055 | 14.44° C | 42% | 1016.8 hPa | 0 mm | 0.45 m/s, 10° | - | - |
| 1778113157 | 14.44° C | 40% | 1016.8 hPa | 0 mm | 2.68 m/s, 312° | - | - |
| 1778112256 | 15° C | 44% | 1016.5 hPa | 0 mm | 0 m/s | - | - |
| 1778111357 | 15° C | 41% | 1016.5 hPa | 0 mm | 0.45 m/s, 17° | - | - |
| 1778109556 | 15.56° C | 36% | 1016.6 hPa | 0 mm | 1.79 m/s, 11° | - | - |
| 1778108655 | 15.56° C | 39% | 1016.5 hPa | 0 mm | 1.34 m/s, 179° | - | - |
| 1778107756 | 15.56° C | 36% | 1016.5 hPa | 0 mm | 2.24 m/s, 30° | - | - |
| 1778106855 | 15.56° C | 36% | 1016.5 hPa | 0 mm | 1.79 m/s, 117° | - | - |
* Rain latest hour (hover to see other rain measurements)
** Current wind speed in m/s (hover to see current wind gust speed)